Wetterdaten: Dienstag, 05.10.2021
Datum Zeit Temp. A. Temp. A. min Temp. A. max Feuchte A. Bod.Feucht 4 Luftdruck Regen Wind Richtung Richtung Sonnenschein ET Solar Taupunkt Windchill Windben Empfang
05.10.2021 00:00 9,2 C 9,1 C 9,2 C 95 % 0 cb 1016,5 hPa 0,0 l/m 1,6 km/h (1 Bft) S 180 0 min 0,000 mm 0 W/m 8,4 C 9,2 C 4,8 km/h (1 Bft) 100,00 %
05.10.2021 00:10 9,2 C 9,2 C 9,2 C 95 % 0 cb 1016,6 hPa 0,0 l/m 0,0 km/h (0 Bft) S 180 0 min 0,000 mm 0 W/m 8,4 C 9,2 C 1,6 km/h (1 Bft) 100,00 %
05.10.2021 00:20 9,2 C 9,2 C 9,2 C 95 % 0 cb 1016,4 hPa 0,0 l/m 0,0 km/h (0 Bft) N 0 0 min 0,000 mm 0 W/m 8,4 C 9,2 C 0,0 km/h (0 Bft) 100,00 %
05.10.2021 00:30 9,1 C 9,1 C 9,2 C 95 % 0 cb 1016,2 hPa 0,0 l/m 0,0 km/h (0 Bft) N 0 0 min 0,000 mm 0 W/m 8,3 C 9,1 C 0,0 km/h (0 Bft) 100,00 %
05.10.2021 00:40 9,1 C 9,1 C 9,1 C 95 % 0 cb 1016,2 hPa 0,0 l/m 0,0 km/h (0 Bft) N 0 0 min 0,000 mm 0 W/m 8,3 C 9,1 C 0,0 km/h (0 Bft) 100,00 %
05.10.2021 00:50 9,1 C 9,0 C 9,1 C 95 % 0 cb 1016,0 hPa 0,0 l/m 0,0 km/h (0 Bft) N 0 0 min 0,000 mm 0 W/m 8,3 C 9,1 C 0,0 km/h (0 Bft) 100,00 %
05.10.2021 01:00 9,1 C 9,1 C 9,1 C 95 % 0 cb 1015,9 hPa 0,0 l/m 0,0 km/h (0 Bft) N 0 0 min 0,000 mm 0 W/m 8,3 C 9,1 C 0,0 km/h (0 Bft) 100,00 %
05.10.2021 01:10 9,1 C 9,1 C 9,1 C 96 % 0 cb 1015,8 hPa 0,0 l/m 0,0 km/h (0 Bft) N 0 0 min 0,000 mm 0 W/m 8,5 C 9,1 C 0,0 km/h (0 Bft) 100,00 %
05.10.2021 01:20 9,2 C 9,1 C 9,2 C 96 % 0 cb 1015,6 hPa 0,0 l/m 0,0 km/h (0 Bft) N 0 0 min 0,000 mm 0 W/m 8,6 C 9,2 C 0,0 km/h (0 Bft) 100,00 %
05.10.2021 01:30 9,2 C 9,2 C 9,2 C 96 % 0 cb 1015,5 hPa 0,0 l/m 0,0 km/h (0 Bft) N 0 0 min 0,000 mm 0 W/m 8,6 C 9,2 C 0,0 km/h (0 Bft) 100,00 %
05.10.2021 01:40 9,1 C 9,1 C 9,2 C 95 % 0 cb 1015,4 hPa 0,0 l/m 0,0 km/h (0 Bft) N 0 0 min 0,000 mm 0 W/m 8,3 C 9,1 C 0,0 km/h (0 Bft) 100,00 %
05.10.2021 01:50 9,1 C 9,0 C 9,1 C 95 % 0 cb 1015,3 hPa 0,0 l/m 0,0 km/h (0 Bft) N 0 0 min 0,000 mm 0 W/m 8,3 C 9,1 C 0,0 km/h (0 Bft) 100,00 %
05.10.2021 02:00 9,0 C 9,0 C 9,1 C 95 % 0 cb 1015,3 hPa 0,0 l/m 0,0 km/h (0 Bft) N 0 0 min 0,000 mm 0 W/m 8,2 C 9,0 C 0,0 km/h (0 Bft) 100,00 %
05.10.2021 02:10 9,0 C 8,9 C 9,0 C 95 % 0 cb 1015,2 hPa 0,0 l/m 0,0 km/h (0 Bft) N 0 0 min 0,000 mm 0 W/m 8,2 C 9,0 C 0,0 km/h (0 Bft) 98,68 %
05.10.2021 02:20 8,9 C 8,9 C 9,0 C 96 % 0 cb 1015,2 hPa 0,0 l/m 0,0 km/h (0 Bft) N 0 0 min 0,000 mm 0 W/m 8,3 C 8,9 C 0,0 km/h (0 Bft) 100,00 %
05.10.2021 02:30 9,0 C 8,9 C 9,0 C 96 % 0 cb 1015,3 hPa 0,0 l/m 0,0 km/h (0 Bft) N 0 0 min 0,000 mm 0 W/m 8,4 C 9,0 C 0,0 km/h (0 Bft) 100,00 %
05.10.2021 02:40 9,0 C 9,0 C 9,0 C 96 % 0 cb 1015,3 hPa 0,0 l/m 0,0 km/h (0 Bft) N 0 0 min 0,000 mm 0 W/m 8,4 C 9,0 C 0,0 km/h (0 Bft) 100,00 %
05.10.2021 02:50 9,0 C 9,0 C 9,0 C 96 % 0 cb 1015,0 hPa 0,0 l/m 0,0 km/h (0 Bft) N 0 0 min 0,000 mm 0 W/m 8,4 C 9,0 C 0,0 km/h (0 Bft) 100,00 %
05.10.2021 03:00 9,1 C 9,0 C 9,1 C 96 % 0 cb 1014,8 hPa 0,0 l/m 0,0 km/h (0 Bft) N 0 0 min 0,000 mm 0 W/m 8,5 C 9,1 C 0,0 km/h (0 Bft) 99,56 %
05.10.2021 03:10 9,1 C 9,1 C 9,1 C 96 % 0 cb 1014,7 hPa 0,0 l/m 0,0 km/h (0 Bft) N 0 0 min 0,000 mm 0 W/m 8,5 C 9,1 C 0,0 km/h (0 Bft) 100,00 %
05.10.2021 03:20 9,1 C 9,0 C 9,1 C 96 % 0 cb 1014,7 hPa 0,0 l/m 0,0 km/h (0 Bft) N 0 0 min 0,000 mm 0 W/m 8,5 C 9,1 C 0,0 km/h (0 Bft) 100,00 %
05.10.2021 03:30 9,0 C 9,0 C 9,1 C 96 % 0 cb 1014,5 hPa 0,0 l/m 0,0 km/h (0 Bft) N 0 0 min 0,000 mm 0 W/m 8,4 C 9,0 C 0,0 km/h (0 Bft) 100,00 %
05.10.2021 03:40 9,0 C 9,0 C 9,1 C 96 % 0 cb 1014,5 hPa 0,0 l/m 0,0 km/h (0 Bft) N 0 0 min 0,000 mm 0 W/m 8,4 C 9,0 C 0,0 km/h (0 Bft) 100,00 %
05.10.2021 03:50 9,1 C 9,0 C 9,1 C 96 % 0 cb 1014,3 hPa 0,0 l/m 0,0 km/h (0 Bft) N 0 0 min 0,000 mm 0 W/m 8,5 C 9,1 C 0,0 km/h (0 Bft) 99,56 %
05.10.2021 04:00 9,0 C 9,0 C 9,1 C 96 % 0 cb 1014,1 hPa 0,0 l/m 0,0 km/h (0 Bft) N 0 0 min 0,000 mm 0 W/m 8,4 C 9,0 C 0,0 km/h (0 Bft) 100,00 %
05.10.2021 04:10 9,1 C 9,1 C 9,1 C 96 % 0 cb 1014,0 hPa 0,0 l/m 0,0 km/h (0 Bft) N 0 0 min 0,000 mm 0 W/m 8,5 C 9,1 C 0,0 km/h (0 Bft) 100,00 %
05.10.2021 04:20 9,1 C 9,0 C 9,1 C 96 % 0 cb 1013,8 hPa 0,0 l/m 0,0 km/h (0 Bft) N 0 0 min 0,000 mm 0 W/m 8,5 C 9,1 C 0,0 km/h (0 Bft) 100,00 %
05.10.2021 04:30 9,2 C 9,1 C 9,2 C 96 % 0 cb 1013,7 hPa 0,0 l/m 0,0 km/h (0 Bft) N 0 0 min 0,000 mm 0 W/m 8,6 C 9,2 C 0,0 km/h (0 Bft) 100,00 %
05.10.2021 04:40 9,2 C 9,1 C 9,2 C 96 % 0 cb 1013,6 hPa 0,0 l/m 0,0 km/h (0 Bft) N 0 0 min 0,000 mm 0 W/m 8,6 C 9,2 C 0,0 km/h (0 Bft) 98,68 %
05.10.2021 04:50 9,1 C 9,1 C 9,2 C 96 % 0 cb 1013,5 hPa 0,0 l/m 0,0 km/h (0 Bft) N 0 0 min 0,000 mm 0 W/m 8,5 C 9,1 C 0,0 km/h (0 Bft) 100,00 %
05.10.2021 05:00 9,1 C 9,1 C 9,1 C 96 % 0 cb 1013,3 hPa 0,0 l/m 0,0 km/h (0 Bft) N 0 0 min 0,000 mm 0 W/m 8,5 C 9,1 C 0,0 km/h (0 Bft) 100,00 %
05.10.2021 05:10 9,0 C 9,0 C 9,1 C 96 % 0 cb 1013,0 hPa 0,0 l/m 0,0 km/h (0 Bft) N 0 0 min 0,000 mm 0 W/m 8,4 C 9,0 C 0,0 km/h (0 Bft) 100,00 %
05.10.2021 05:20 8,9 C 8,9 C 9,0 C 96 % 0 cb 1013,0 hPa 0,0 l/m 0,0 km/h (0 Bft) N 0 0 min 0,000 mm 0 W/m 8,3 C 8,9 C 0,0 km/h (0 Bft) 100,00 %
05.10.2021 05:30 8,8 C 8,8 C 8,9 C 96 % 0 cb 1013,0 hPa 0,0 l/m 0,0 km/h (0 Bft) N 0 0 min 0,000 mm 0 W/m 8,2 C 8,8 C 0,0 km/h (0 Bft) 100,00 %
05.10.2021 05:40 8,7 C 8,7 C 8,8 C 96 % 0 cb 1013,0 hPa 0,0 l/m 0,0 km/h (0 Bft) N 0 0 min 0,000 mm 0 W/m 8,1 C 8,7 C 0,0 km/h (0 Bft) 100,00 %
05.10.2021 05:50 8,6 C 8,6 C 8,7 C 96 % 0 cb 1012,9 hPa 0,0 l/m 0,0 km/h (0 Bft) N 0 0 min 0,000 mm 0 W/m 8,0 C 8,6 C 0,0 km/h (0 Bft) 100,00 %
05.10.2021 06:00 8,5 C 8,4 C 8,6 C 96 % 0 cb 1012,6 hPa 0,0 l/m 0,0 km/h (0 Bft) N 0 0 min 0,000 mm 0 W/m 7,9 C 8,5 C 0,0 km/h (0 Bft) 100,00 %
05.10.2021 06:10 8,4 C 8,4 C 8,5 C 96 % 0 cb 1012,5 hPa 0,0 l/m 0,0 km/h (0 Bft) N 0 0 min 0,000 mm 0 W/m 7,8 C 8,4 C 0,0 km/h (0 Bft) 100,00 %
05.10.2021 06:20 8,4 C 8,4 C 8,5 C 96 % 0 cb 1012,5 hPa 0,0 l/m 0,0 km/h (0 Bft) N 0 0 min 0,000 mm 0 W/m 7,8 C 8,4 C 0,0 km/h (0 Bft) 100,00 %
05.10.2021 06:30 8,4 C 8,4 C 8,4 C 96 % 0 cb 1012,4 hPa 0,0 l/m 0,0 km/h (0 Bft) N 0 0 min 0,000 mm 0 W/m 7,8 C 8,4 C 0,0 km/h (0 Bft) 100,00 %
05.10.2021 06:40 8,5 C 8,4 C 8,5 C 96 % 0 cb 1012,3 hPa 0,0 l/m 0,0 km/h (0 Bft) N 0 0 min 0,000 mm 0 W/m 7,9 C 8,5 C 0,0 km/h (0 Bft) 100,00 %
05.10.2021 06:50 8,5 C 8,4 C 8,5 C 96 % 0 cb 1012,3 hPa 0,0 l/m 0,0 km/h (0 Bft) N 0 0 min 0,000 mm 0 W/m 7,9 C 8,5 C 0,0 km/h (0 Bft) 100,00 %
05.10.2021 07:00 8,5 C 8,4 C 8,5 C 96 % 0 cb 1012,2 hPa 0,0 l/m 0,0 km/h (0 Bft) N 0 0 min 0,000 mm 0 W/m 7,9 C 8,5 C 0,0 km/h (0 Bft) 100,00 %
05.10.2021 07:10 8,6 C 8,5 C 8,6 C 96 % 0 cb 1012,2 hPa 0,0 l/m 0,0 km/h (0 Bft) N 0 0 min 0,000 mm 0 W/m 8,0 C 8,6 C 0,0 km/h (0 Bft) 100,00 %
05.10.2021 07:20 8,7 C 8,6 C 8,7 C 97 % 0 cb 1012,1 hPa 0,0 l/m 0,0 km/h (0 Bft) N 0 0 min 0,000 mm 0 W/m 8,3 C 8,7 C 0,0 km/h (0 Bft) 99,56 %
05.10.2021 07:30 8,8 C 8,7 C 8,8 C 97 % 0 cb 1012,0 hPa 0,0 l/m 0,0 km/h (0 Bft) N 0 0 min 0,000 mm 0 W/m 8,4 C 8,8 C 0,0 km/h (0 Bft) 100,00 %
05.10.2021 07:40 8,9 C 8,8 C 8,9 C 97 % 0 cb 1012,0 hPa 0,0 l/m 0,0 km/h (0 Bft) N 0 0 min 0,000 mm 0 W/m 8,4 C 8,9 C 0,0 km/h (0 Bft) 100,00 %
05.10.2021 07:50 9,0 C 8,9 C 9,0 C 97 % 0 cb 1012,0 hPa 0,0 l/m 0,0 km/h (0 Bft) N 0 0 min 0,000 mm 0 W/m 8,5 C 9,0 C 0,0 km/h (0 Bft) 100,00 %
05.10.2021 08:00 9,1 C 9,0 C 9,1 C 97 % 0 cb 1011,8 hPa 0,0 l/m 0,0 km/h (0 Bft) N 0 0 min 0,000 mm 9 W/m 8,6 C 9,1 C 0,0 km/h (0 Bft) 100,00 %
05.10.2021 08:10 9,2 C 9,1 C 9,2 C 97 % 0 cb 1011,7 hPa 0,0 l/m 0,0 km/h (0 Bft) N 0 0 min 0,000 mm 16 W/m 8,7 C 9,2 C 0,0 km/h (0 Bft) 100,00 %
05.10.2021 08:20 9,3 C 9,2 C 9,3 C 97 % 0 cb 1011,6 hPa 0,0 l/m 0,0 km/h (0 Bft) N 0 0 min 0,000 mm 23 W/m 8,8 C 9,3 C 0,0 km/h (0 Bft) 100,00 %
05.10.2021 08:30 9,3 C 9,3 C 9,3 C 97 % 0 cb 1011,4 hPa 0,0 l/m 0,0 km/h (0 Bft) N 0 0 min 0,000 mm 28 W/m 8,8 C 9,3 C 0,0 km/h (0 Bft) 100,00 %
05.10.2021 08:40 9,5 C 9,3 C 9,5 C 97 % 0 cb 1011,4 hPa 0,0 l/m 0,0 km/h (0 Bft) N 0 0 min 0,000 mm 26 W/m 9,0 C 9,5 C 0,0 km/h (0 Bft) 100,00 %
05.10.2021 08:50 9,6 C 9,5 C 9,6 C 97 % 0 cb 1011,4 hPa 0,0 l/m 0,0 km/h (0 Bft) S 180 0 min 0,000 mm 26 W/m 9,1 C 9,6 C 4,8 km/h (1 Bft) 100,00 %
05.10.2021 09:00 9,7 C 9,6 C 9,7 C 97 % 0 cb 1011,3 hPa 0,0 l/m 1,6 km/h (1 Bft) S 180 0 min 0,000 mm 26 W/m 9,2 C 9,7 C 6,4 km/h (2 Bft) 100,00 %
05.10.2021 09:10 9,7 C 9,7 C 9,7 C 97 % 0 cb 1011,3 hPa 0,0 l/m 1,6 km/h (1 Bft) S 180 0 min 0,000 mm 46 W/m 9,2 C 9,7 C 4,8 km/h (1 Bft) 100,00 %
05.10.2021 09:20 9,8 C 9,7 C 9,8 C 97 % 0 cb 1011,3 hPa 0,0 l/m 3,2 km/h (1 Bft) S 180 0 min 0,000 mm 47 W/m 9,3 C 9,8 C 6,4 km/h (2 Bft) 100,00 %
05.10.2021 09:30 9,8 C 9,8 C 9,9 C 97 % 0 cb 1011,2 hPa 0,0 l/m 3,2 km/h (1 Bft) S 180 0 min 0,000 mm 54 W/m 9,3 C 9,8 C 8,0 km/h (2 Bft) 100,00 %
05.10.2021 09:40 9,9 C 9,8 C 9,9 C 97 % 0 cb 1011,3 hPa 0,0 l/m 3,2 km/h (1 Bft) S 180 0 min 0,000 mm 83 W/m 9,4 C 9,9 C 8,0 km/h (2 Bft) 100,00 %
05.10.2021 09:50 9,9 C 9,9 C 10,0 C 97 % 0 cb 1011,3 hPa 0,0 l/m 3,2 km/h (1 Bft) S 180 0 min 0,000 mm 72 W/m 9,4 C 9,9 C 8,0 km/h (2 Bft) 100,00 %
05.10.2021 10:00 10,1 C 9,9 C 10,1 C 97 % 0 cb 1011,2 hPa 0,0 l/m 3,2 km/h (1 Bft) S 180 10 min 0,025 mm 188 W/m 9,6 C 10,1 C 9,7 km/h (2 Bft) 100,00 %
05.10.2021 10:10 10,3 C 10,1 C 10,3 C 97 % 0 cb 1011,1 hPa 0,0 l/m 3,2 km/h (1 Bft) S 180 10 min 0,000 mm 213 W/m 9,8 C 10,3 C 12,9 km/h (3 Bft) 100,00 %
05.10.2021 10:20 10,7 C 10,4 C 10,7 C 97 % 0 cb 1011,0 hPa 0,0 l/m 3,2 km/h (1 Bft) S 180 10 min 0,000 mm 327 W/m 10,2 C 10,7 C 9,7 km/h (2 Bft) 100,00 %
05.10.2021 10:30 10,8 C 10,6 C 10,8 C 97 % 0 cb 1010,9 hPa 0,0 l/m 3,2 km/h (1 Bft) S 180 10 min 0,000 mm 255 W/m 10,3 C 10,8 C 9,7 km/h (2 Bft) 100,00 %
05.10.2021 10:40 11,1 C 10,8 C 11,1 C 96 % 0 cb 1010,7 hPa 0,0 l/m 4,8 km/h (1 Bft) S 180 10 min 0,000 mm 441 W/m 10,5 C 11,1 C 14,5 km/h (3 Bft) 100,00 %
05.10.2021 10:50 11,1 C 11,0 C 11,1 C 94 % 0 cb 1010,7 hPa 0,0 l/m 4,8 km/h (1 Bft) S 180 0 min 0,000 mm 90 W/m 10,2 C 11,1 C 12,9 km/h (3 Bft) 100,00 %
05.10.2021 11:00 11,3 C 11,1 C 11,3 C 94 % 0 cb 1010,7 hPa 0,0 l/m 4,8 km/h (1 Bft) S 180 10 min 0,102 mm 422 W/m 10,4 C 11,3 C 16,1 km/h (3 Bft) 100,00 %
05.10.2021 11:10 11,8 C 11,4 C 11,8 C 93 % 0 cb 1010,5 hPa 0,0 l/m 6,4 km/h (2 Bft) S 180 10 min 0,000 mm 450 W/m 10,7 C 11,8 C 14,5 km/h (3 Bft) 100,00 %
05.10.2021 11:20 12,4 C 11,8 C 12,4 C 92 % 0 cb 1010,5 hPa 0,0 l/m 4,8 km/h (1 Bft) S 180 10 min 0,000 mm 543 W/m 11,1 C 12,4 C 16,1 km/h (3 Bft) 100,00 %
05.10.2021 11:30 12,8 C 12,4 C 12,8 C 88 % 0 cb 1010,4 hPa 0,0 l/m 6,4 km/h (2 Bft) S 180 10 min 0,000 mm 580 W/m 10,9 C 12,8 C 16,1 km/h (3 Bft) 100,00 %
05.10.2021 11:40 13,1 C 12,9 C 13,1 C 86 % 0 cb 1010,3 hPa 0,0 l/m 4,8 km/h (1 Bft) S 180 10 min 0,000 mm 246 W/m 10,8 C 13,1 C 14,5 km/h (3 Bft) 100,00 %
05.10.2021 11:50 13,2 C 13,1 C 13,2 C 87 % 0 cb 1010,2 hPa 0,0 l/m 6,4 km/h (2 Bft) S-SO 157 10 min 0,000 mm 304 W/m 11,1 C 13,2 C 17,7 km/h (3 Bft) 100,00 %
05.10.2021 12:00 13,6 C 13,2 C 13,6 C 85 % 0 cb 1010,0 hPa 0,0 l/m 8,0 km/h (2 Bft) S 180 10 min 0,178 mm 568 W/m 11,1 C 13,6 C 19,3 km/h (3 Bft) 100,00 %
05.10.2021 12:10 14,0 C 13,6 C 14,0 C 83 % 0 cb 1009,9 hPa 0,0 l/m 9,7 km/h (2 Bft) S 180 10 min 0,000 mm 534 W/m 11,2 C 14,0 C 20,9 km/h (4 Bft) 100,00 %
05.10.2021 12:20 14,4 C 14,0 C 14,4 C 82 % 0 cb 1009,8 hPa 0,0 l/m 8,0 km/h (2 Bft) S 180 10 min 0,000 mm 536 W/m 11,4 C 14,4 C 17,7 km/h (3 Bft) 99,12 %
05.10.2021 12:30 14,8 C 14,4 C 14,8 C 80 % 0 cb 1009,7 hPa 0,0 l/m 8,0 km/h (2 Bft) S-SW 202 10 min 0,000 mm 540 W/m 11,4 C 14,8 C 17,7 km/h (3 Bft) 100,00 %
05.10.2021 12:40 15,3 C 14,8 C 15,3 C 80 % 0 cb 1009,5 hPa 0,0 l/m 8,0 km/h (2 Bft) S 180 10 min 0,000 mm 715 W/m 11,9 C 15,3 C 22,5 km/h (4 Bft) 100,00 %
05.10.2021 12:50 15,6 C 15,3 C 15,6 C 79 % 0 cb 1009,6 hPa 0,0 l/m 9,7 km/h (2 Bft) S 180 10 min 0,000 mm 705 W/m 12,0 C 15,6 C 24,1 km/h (4 Bft) 99,12 %
05.10.2021 13:00 15,8 C 15,6 C 15,8 C 78 % 0 cb 1009,4 hPa 0,0 l/m 8,0 km/h (2 Bft) S 180 10 min 0,279 mm 747 W/m 12,0 C 15,8 C 19,3 km/h (3 Bft) 100,00 %
05.10.2021 13:10 16,2 C 15,8 C 16,2 C 76 % 0 cb 1009,3 hPa 0,0 l/m 9,7 km/h (2 Bft) S 180 10 min 0,000 mm 698 W/m 12,0 C 16,2 C 24,1 km/h (4 Bft) 100,00 %
05.10.2021 13:20 16,4 C 16,2 C 16,4 C 74 % 0 cb 1009,0 hPa 0,0 l/m 11,3 km/h (2 Bft) S 180 10 min 0,000 mm 705 W/m 11,8 C 16,4 C 25,7 km/h (4 Bft) 100,00 %
05.10.2021 13:30 16,5 C 16,4 C 16,6 C 73 % 0 cb 1009,0 hPa 0,0 l/m 11,3 km/h (2 Bft) S 180 10 min 0,000 mm 668 W/m 11,6 C 16,5 C 25,7 km/h (4 Bft) 100,00 %
05.10.2021 13:40 16,5 C 16,4 C 16,6 C 71 % 0 cb 1008,8 hPa 0,0 l/m 11,3 km/h (2 Bft) S 180 10 min 0,000 mm 617 W/m 11,2 C 16,5 C 22,5 km/h (4 Bft) 100,00 %
05.10.2021 13:50 16,3 C 16,3 C 16,5 C 73 % 0 cb 1008,8 hPa 0,0 l/m 11,3 km/h (2 Bft) S 180 10 min 0,000 mm 290 W/m 11,4 C 16,3 C 24,1 km/h (4 Bft) 100,00 %
05.10.2021 14:00 16,6 C 16,3 C 16,6 C 70 % 0 cb 1008,8 hPa 0,0 l/m 12,9 km/h (3 Bft) S-SW 202 10 min 0,330 mm 710 W/m 11,1 C 16,6 C 33,8 km/h (5 Bft) 100,00 %
05.10.2021 14:10 16,5 C 16,5 C 16,6 C 71 % 0 cb 1008,6 hPa 0,0 l/m 14,5 km/h (3 Bft) S 180 10 min 0,000 mm 571 W/m 11,2 C 16,5 C 30,6 km/h (5 Bft) 100,00 %
05.10.2021 14:20 16,3 C 16,3 C 16,5 C 72 % 0 cb 1008,6 hPa 0,0 l/m 9,7 km/h (2 Bft) S-SW 202 10 min 0,000 mm 522 W/m 11,2 C 16,3 C 20,9 km/h (4 Bft) 100,00 %
05.10.2021 14:30 15,8 C 15,8 C 16,3 C 71 % 0 cb 1008,6 hPa 0,0 l/m 9,7 km/h (2 Bft) S 180 0 min 0,000 mm 113 W/m 10,6 C 15,8 C 22,5 km/h (4 Bft) 100,00 %
05.10.2021 14:40 15,3 C 15,3 C 15,8 C 74 % 0 cb 1008,5 hPa 0,0 l/m 9,7 km/h (2 Bft) S 180 0 min 0,000 mm 102 W/m 10,7 C 15,3 C 24,1 km/h (4 Bft) 100,00 %
05.10.2021 14:50 15,1 C 15,1 C 15,3 C 75 % 0 cb 1008,4 hPa 0,0 l/m 9,7 km/h (2 Bft) S 180 10 min 0,000 mm 155 W/m 10,7 C 15,1 C 20,9 km/h (4 Bft) 100,00 %
05.10.2021 15:00 14,9 C 14,9 C 15,1 C 76 % 0 cb 1008,3 hPa 0,0 l/m 12,9 km/h (3 Bft) S 180 10 min 0,127 mm 244 W/m 10,7 C 14,9 C 27,4 km/h (4 Bft) 100,00 %
05.10.2021 15:10 15,1 C 14,9 C 15,1 C 76 % 0 cb 1008,2 hPa 0,0 l/m 9,7 km/h (2 Bft) S 180 10 min 0,000 mm 227 W/m 10,9 C 15,1 C 25,7 km/h (4 Bft) 100,00 %
05.10.2021 15:20 15,2 C 15,1 C 15,2 C 75 % 0 cb 1008,1 hPa 0,0 l/m 9,7 km/h (2 Bft) S 180 10 min 0,000 mm 172 W/m 10,8 C 15,2 C 24,1 km/h (4 Bft) 100,00 %
05.10.2021 15:30 15,3 C 15,2 C 15,3 C 75 % 0 cb 1007,9 hPa 0,0 l/m 11,3 km/h (2 Bft) S-SW 202 10 min 0,000 mm 204 W/m 10,9 C 15,3 C 22,5 km/h (4 Bft) 100,00 %
05.10.2021 15:40 15,3 C 15,2 C 15,3 C 74 % 0 cb 1007,8 hPa 0,0 l/m 11,3 km/h (2 Bft) S 180 0 min 0,000 mm 132 W/m 10,7 C 15,3 C 32,2 km/h (5 Bft) 100,00 %
05.10.2021 15:50 15,0 C 15,0 C 15,2 C 75 % 0 cb 1007,8 hPa 0,0 l/m 12,9 km/h (3 Bft) S 180 0 min 0,000 mm 137 W/m 10,6 C 15,0 C 30,6 km/h (5 Bft) 100,00 %
05.10.2021 16:00 15,1 C 14,9 C 15,1 C 78 % 0 cb 1007,8 hPa 0,0 l/m 8,0 km/h (2 Bft) S 180 10 min 0,102 mm 172 W/m 11,3 C 15,1 C 24,1 km/h (4 Bft) 100,00 %
05.10.2021 16:10 14,8 C 14,8 C 15,1 C 79 % 0 cb 1007,8 hPa 0,0 l/m 9,7 km/h (2 Bft) S 180 0 min 0,000 mm 91 W/m 11,2 C 14,8 C 22,5 km/h (4 Bft) 100,00 %
05.10.2021 16:20 14,5 C 14,5 C 14,8 C 82 % 0 cb 1008,0 hPa 0,0 l/m 8,0 km/h (2 Bft) S 180 0 min 0,000 mm 74 W/m 11,5 C 14,5 C 19,3 km/h (3 Bft) 100,00 %
05.10.2021 16:30 14,1 C 14,1 C 14,5 C 84 % 0 cb 1008,0 hPa 0,4 l/m 6,4 km/h (2 Bft) S-SW 202 0 min 0,000 mm 35 W/m 11,4 C 14,1 C 14,5 km/h (3 Bft) 100,00 %
05.10.2021 16:40 13,5 C 13,5 C 14,1 C 87 % 0 cb 1008,1 hPa 0,6 l/m 6,4 km/h (2 Bft) S 180 0 min 0,000 mm 32 W/m 11,4 C 13,5 C 17,7 km/h (3 Bft) 100,00 %
05.10.2021 16:50 13,2 C 13,2 C 13,5 C 89 % 0 cb 1008,1 hPa 0,6 l/m 4,8 km/h (1 Bft) SW 225 0 min 0,000 mm 35 W/m 11,4 C 13,2 C 14,5 km/h (3 Bft) 100,00 %
05.10.2021 17:00 12,8 C 12,8 C 13,2 C 91 % 0 cb 1008,2 hPa 0,4 l/m 8,0 km/h (2 Bft) S-SW 202 0 min 0,025 mm 30 W/m 11,4 C 12,8 C 22,5 km/h (4 Bft) 100,00 %
05.10.2021 17:10 12,6 C 12,6 C 12,8 C 91 % 0 cb 1008,2 hPa 0,4 l/m 6,4 km/h (2 Bft) S-SW 202 0 min 0,000 mm 25 W/m 11,2 C 12,6 C 17,7 km/h (3 Bft) 99,56 %
05.10.2021 17:20 12,4 C 12,4 C 12,6 C 92 % 0 cb 1008,1 hPa 0,4 l/m 6,4 km/h (2 Bft) S 180 0 min 0,000 mm 23 W/m 11,1 C 12,4 C 16,1 km/h (3 Bft) 100,00 %
05.10.2021 17:30 12,2 C 12,2 C 12,4 C 93 % 0 cb 1008,0 hPa 0,2 l/m 8,0 km/h (2 Bft) S 180 0 min 0,000 mm 25 W/m 11,1 C 12,2 C 24,1 km/h (4 Bft) 100,00 %
05.10.2021 17:40 12,1 C 12,1 C 12,2 C 93 % 0 cb 1008,0 hPa 0,0 l/m 8,0 km/h (2 Bft) S 180 0 min 0,000 mm 18 W/m 11,0 C 12,1 C 19,3 km/h (3 Bft) 100,00 %
05.10.2021 17:50 11,9 C 11,9 C 12,1 C 94 % 0 cb 1007,9 hPa 0,0 l/m 9,7 km/h (2 Bft) S 180 0 min 0,000 mm 12 W/m 11,0 C 11,9 C 27,4 km/h (4 Bft) 100,00 %
05.10.2021 18:00 11,9 C 11,9 C 11,9 C 94 % 0 cb 1008,0 hPa 0,0 l/m 9,7 km/h (2 Bft) S 180 0 min 0,025 mm 11 W/m 11,0 C 11,9 C 24,1 km/h (4 Bft) 100,00 %
05.10.2021 18:10 11,8 C 11,8 C 11,9 C 94 % 0 cb 1008,1 hPa 0,0 l/m 9,7 km/h (2 Bft) S 180 0 min 0,000 mm 9 W/m 10,9 C 11,8 C 25,7 km/h (4 Bft) 100,00 %
05.10.2021 18:20 11,8 C 11,8 C 11,8 C 95 % 0 cb 1008,0 hPa 0,0 l/m 11,3 km/h (2 Bft) S 180 0 min 0,000 mm 5 W/m 11,0 C 11,8 C 24,1 km/h (4 Bft) 100,00 %
05.10.2021 18:30 11,8 C 11,8 C 11,8 C 95 % 0 cb 1008,1 hPa 0,0 l/m 9,7 km/h (2 Bft) S-SW 202 0 min 0,000 mm 9 W/m 11,0 C 11,8 C 22,5 km/h (4 Bft) 100,00 %
05.10.2021 18:40 11,8 C 11,8 C 11,8 C 95 % 0 cb 1008,3 hPa 0,0 l/m 6,4 km/h (2 Bft) S 180 0 min 0,000 mm 16 W/m 11,0 C 11,8 C 20,9 km/h (4 Bft) 100,00 %
05.10.2021 18:50 11,8 C 11,8 C 11,8 C 95 % 0 cb 1008,3 hPa 0,0 l/m 9,7 km/h (2 Bft) S-SW 202 0 min 0,000 mm 16 W/m 11,0 C 11,8 C 24,1 km/h (4 Bft) 100,00 %
05.10.2021 19:00 11,7 C 11,7 C 11,8 C 95 % 0 cb 1008,3 hPa 0,0 l/m 9,7 km/h (2 Bft) S-SW 202 0 min 0,000 mm 12 W/m 10,9 C 11,7 C 24,1 km/h (4 Bft) 100,00 %
05.10.2021 19:10 11,7 C 11,7 C 11,7 C 95 % 0 cb 1008,5 hPa 0,0 l/m 9,7 km/h (2 Bft) S 180 0 min 0,000 mm 0 W/m 10,9 C 11,7 C 24,1 km/h (4 Bft) 100,00 %
05.10.2021 19:20 11,6 C 11,6 C 11,7 C 95 % 0 cb 1008,7 hPa 0,0 l/m 11,3 km/h (2 Bft) SW 225 0 min 0,000 mm 0 W/m 10,8 C 11,6 C 27,4 km/h (4 Bft) 100,00 %
05.10.2021 19:30 11,4 C 11,4 C 11,6 C 95 % 0 cb 1009,1 hPa 0,0 l/m 6,4 km/h (2 Bft) W 270 0 min 0,000 mm 0 W/m 10,6 C 11,4 C 20,9 km/h (4 Bft) 100,00 %
05.10.2021 19:40 11,2 C 11,2 C 11,4 C 94 % 0 cb 1009,4 hPa 0,0 l/m 6,4 km/h (2 Bft) W-NW 292 0 min 0,000 mm 0 W/m 10,3 C 11,2 C 20,9 km/h (4 Bft) 100,00 %
05.10.2021 19:50 11,0 C 11,0 C 11,2 C 95 % 0 cb 1009,7 hPa 0,0 l/m 3,2 km/h (1 Bft) W-NW 292 0 min 0,000 mm 0 W/m 10,2 C 11,0 C 9,7 km/h (2 Bft) 100,00 %
05.10.2021 20:00 10,9 C 10,9 C 11,0 C 94 % 0 cb 1009,7 hPa 0,0 l/m 4,8 km/h (1 Bft) W 270 0 min 0,000 mm 0 W/m 10,0 C 10,9 C 16,1 km/h (3 Bft) 100,00 %
05.10.2021 20:10 10,7 C 10,7 C 10,8 C 94 % 0 cb 1010,1 hPa 0,0 l/m 4,8 km/h (1 Bft) W 270 0 min 0,000 mm 0 W/m 9,8 C 10,7 C 12,9 km/h (3 Bft) 100,00 %
05.10.2021 20:20 10,6 C 10,6 C 10,7 C 94 % 0 cb 1010,1 hPa 0,0 l/m 3,2 km/h (1 Bft) W 270 0 min 0,000 mm 0 W/m 9,7 C 10,6 C 11,3 km/h (2 Bft) 100,00 %
05.10.2021 20:30 10,6 C 10,6 C 10,6 C 94 % 0 cb 1010,3 hPa 0,0 l/m 4,8 km/h (1 Bft) W 270 0 min 0,000 mm 0 W/m 9,7 C 10,6 C 16,1 km/h (3 Bft) 100,00 %
05.10.2021 20:40 10,5 C 10,5 C 10,6 C 94 % 0 cb 1010,4 hPa 0,0 l/m 3,2 km/h (1 Bft) W 270 0 min 0,000 mm 0 W/m 9,6 C 10,5 C 9,7 km/h (2 Bft) 100,00 %
05.10.2021 20:50 10,4 C 10,4 C 10,5 C 95 % 0 cb 1010,5 hPa 0,0 l/m 3,2 km/h (1 Bft) W-SW 247 0 min 0,000 mm 0 W/m 9,6 C 10,4 C 11,3 km/h (2 Bft) 100,00 %
05.10.2021 21:00 10,4 C 10,4 C 10,4 C 95 % 0 cb 1010,8 hPa 0,0 l/m 3,2 km/h (1 Bft) W-SW 247 0 min 0,000 mm 0 W/m 9,6 C 10,4 C 14,5 km/h (3 Bft) 100,00 %
05.10.2021 21:10 10,4 C 10,3 C 10,4 C 95 % 0 cb 1010,8 hPa 0,0 l/m 3,2 km/h (1 Bft) W-SW 247 0 min 0,000 mm 0 W/m 9,6 C 10,4 C 11,3 km/h (2 Bft) 100,00 %
05.10.2021 21:20 10,3 C 10,3 C 10,4 C 95 % 0 cb 1011,1 hPa 0,0 l/m 3,2 km/h (1 Bft) W-SW 247 0 min 0,000 mm 0 W/m 9,5 C 10,3 C 12,9 km/h (3 Bft) 100,00 %
05.10.2021 21:30 10,3 C 10,3 C 10,4 C 95 % 0 cb 1011,1 hPa 0,0 l/m 6,4 km/h (2 Bft) W 270 0 min 0,000 mm 0 W/m 9,5 C 10,3 C 22,5 km/h (4 Bft) 100,00 %
05.10.2021 21:40 10,3 C 10,3 C 10,3 C 95 % 0 cb 1011,3 hPa 0,0 l/m 3,2 km/h (1 Bft) W-SW 247 0 min 0,000 mm 0 W/m 9,5 C 10,3 C 19,3 km/h (3 Bft) 99,56 %
05.10.2021 21:50 10,2 C 10,2 C 10,3 C 95 % 0 cb 1011,5 hPa 0,0 l/m 3,2 km/h (1 Bft) W-SW 247 0 min 0,000 mm 0 W/m 9,4 C 10,2 C 12,9 km/h (3 Bft) 100,00 %
05.10.2021 22:00 10,2 C 10,2 C 10,2 C 95 % 0 cb 1011,6 hPa 0,0 l/m 4,8 km/h (1 Bft) W 270 0 min 0,000 mm 0 W/m 9,4 C 10,2 C 14,5 km/h (3 Bft) 100,00 %
05.10.2021 22:10 10,1 C 10,1 C 10,2 C 95 % 0 cb 1011,7 hPa 0,0 l/m 4,8 km/h (1 Bft) W-SW 247 0 min 0,000 mm 0 W/m 9,3 C 10,1 C 16,1 km/h (3 Bft) 100,00 %
05.10.2021 22:20 10,0 C 10,0 C 10,1 C 95 % 0 cb 1011,8 hPa 0,0 l/m 3,2 km/h (1 Bft) W 270 0 min 0,000 mm 0 W/m 9,2 C 10,0 C 12,9 km/h (3 Bft) 100,00 %
05.10.2021 22:30 10,0 C 10,0 C 10,1 C 95 % 0 cb 1011,9 hPa 0,0 l/m 6,4 km/h (2 Bft) SW 225 0 min 0,000 mm 0 W/m 9,2 C 9,4 C 22,5 km/h (4 Bft) 100,00 %
05.10.2021 22:40 9,8 C 9,8 C 10,0 C 94 % 0 cb 1012,0 hPa 0,0 l/m 4,8 km/h (1 Bft) W 270 0 min 0,000 mm 0 W/m 8,9 C 9,6 C 16,1 km/h (3 Bft) 100,00 %
05.10.2021 22:50 9,6 C 9,6 C 9,8 C 93 % 0 cb 1012,2 hPa 0,0 l/m 4,8 km/h (1 Bft) W 270 0 min 0,000 mm 0 W/m 8,5 C 9,4 C 16,1 km/h (3 Bft) 100,00 %
05.10.2021 23:00 9,4 C 9,3 C 9,6 C 93 % 0 cb 1012,3 hPa 0,0 l/m 6,4 km/h (2 Bft) SW 225 0 min 0,000 mm 0 W/m 8,3 C 8,7 C 16,1 km/h (3 Bft) 100,00 %
05.10.2021 23:10 9,2 C 9,2 C 9,3 C 93 % 0 cb 1012,4 hPa 0,0 l/m 6,4 km/h (2 Bft) W 270 0 min 0,000 mm 0 W/m 8,1 C 8,4 C 20,9 km/h (4 Bft) 100,00 %
05.10.2021 23:20 9,1 C 9,1 C 9,2 C 94 % 0 cb 1012,5 hPa 0,0 l/m 4,8 km/h (1 Bft) W 270 0 min 0,000 mm 0 W/m 8,2 C 8,8 C 16,1 km/h (3 Bft) 100,00 %
05.10.2021 23:30 8,9 C 8,9 C 9,1 C 94 % 0 cb 1012,6 hPa 0,0 l/m 3,2 km/h (1 Bft) SW 225 0 min 0,000 mm 0 W/m 8,0 C 8,9 C 14,5 km/h (3 Bft) 100,00 %
05.10.2021 23:40 8,8 C 8,8 C 8,9 C 94 % 0 cb 1012,6 hPa 0,0 l/m 3,2 km/h (1 Bft) W 270 0 min 0,000 mm 0 W/m 7,9 C 8,8 C 11,3 km/h (2 Bft) 100,00 %
05.10.2021 23:50 8,8 C 8,8 C 8,8 C 94 % 0 cb 1012,7 hPa 0,0 l/m 3,2 km/h (1 Bft) W 270 0 min 0,000 mm 0 W/m 7,9 C 8,8 C 9,7 km/h (2 Bft) 100,00 %
_ Min-Zeit 06:00 06:00 06:30 14:00 00:00 15:40 - 00:10 - - - - - 06:10 06:10 00:20 02:10
Minimum _ 8,4 C 8,4 C 8,4 C 70 % 0 cb 1007,8 hPa - 0,0 km/h (0 Bft) - - - - - 7,8 C 8,4 C 0,0 km/h (0 Bft) 98,68 %
_ Max-Zeit 13:30 14:10 13:30 07:20 00:00 00:10 16:40 14:10 - - 10:00 14:00 13:00 13:00 14:00 14:00 00:00
Maximum _ 16,6 C 16,5 C 16,6 C 97 % 0 cb 1016,6 hPa 0,6 l/m 14,5 km/h
S (3 Bft)
- - 10 min 0,330 mm 747 W/m 12,0 C 16,6 C 33,8 km/h
S (5 Bft)
100,00 %
Durchschnitt _ 11,1 C 11,0 C 11,1 C 91 % 0 cb 1011,3 hPa #3,0 l/m 4,3 km/h (1 Bft) S - #5:20 h #1,193 mm 235 W/m 9,6 C 11,0 C 11,6 km/h (2 Bft) 99,95 %
Wetterstation Gdesweiler